Orbital Elements at Epoch 2459200.5 (2020-Dec-17.0) TDB
Reference: JPL 18 (heliocentric ecliptic J2000)
Element | Value | Uncertainty (1-sigma) | Units |
e | .1189683403692377 | 4.0462e-08 | |
a | 2.630047270319244 | 1.5073e-08 | au |
q | 2.31715491147672 | 1.1066e-07 | au |
i | .4294172041689012 | 4.6902e-06 | deg |
node | 314.0202925532717 | 0.00052759 | deg |
peri | 66.69042044273665 | 0.00052806 | deg |
M | 68.91387999464709 | 2.008e-05 | deg |
tp | 2458902.272313351952 (2020-Feb-22.77231335) | 8.6534e-05 | TDB |
period | 1557.914997699111 4.27 | 1.3393e-05 3.667e-08 | d yr |
n | .231078075846041 | 1.9865e-09 | deg/d |
Q | 2.942939629161768 | 1.6866e-08 | au |
|
| | Orbit Determination Parameters
Additional Information
|